Tracking 19706 objects as of 16-Jun-2019
HD Live streaming from Space Station
objects crossing your sky now

SCOUT D-1 R/B

Track SCOUT D-1 R/B now!
10-day predictions


NORAD ID: 10462
Int'l Code: 1977-106B
Perigee: 1,068.5 km
Apogee: 1,104.1 km
Inclination: 89.7 °
Period: 106.8 minutes
Semi major axis: 7457 km
RCS: 0.8881 m2 (medium)
Launch date: October 28, 1977
Source: United States (US)
Launch site: AIR FORCE WESTERN TEST RANGE (AFWTR)

Note: This is a ROCKET BODY
aabbcc
Your satellite tracking list
Your tracking list is empty




NASA's NSSDC Master Catalog

Two Line Element Set (TLE):
1 10462U 77106B   19165.96267882 +.00000031 +00000-0 +34550-4 0  9999
2 10462 089.7375 154.0861 0023883 214.3557 198.1860 13.48132048472022
Source of the keplerian elements: AFSPC